TimeCDT,TemperatureF,Dew PointF,Humidity,Sea Level PressureIn,VisibilityMPH,Wind Direction,Wind SpeedMPH,Gust SpeedMPH,PrecipitationIn,Events,Conditions,WindDirDegrees,DateUTC
12:51 AM,54.0,46.0,75,29.95,10.0,WNW,4.6,-,N/A,,Clear,290,2012-10-15 05:51:00
1:51 AM,53.1,45.0,74,29.95,10.0,West,5.8,-,N/A,,Clear,270,2012-10-15 06:51:00
2:51 AM,53.1,45.0,74,29.94,10.0,West,8.1,-,N/A,,Clear,270,2012-10-15 07:51:00
3:51 AM,52.0,44.1,74,29.94,10.0,West,9.2,-,N/A,,Clear,270,2012-10-15 08:51:00
4:51 AM,51.1,44.1,77,29.96,10.0,West,10.4,-,N/A,,Clear,270,2012-10-15 09:51:00
5:51 AM,51.1,43.0,74,29.97,10.0,West,9.2,-,N/A,,Clear,270,2012-10-15 10:51:00
6:51 AM,48.9,43.0,80,29.98,10.0,WNW,5.8,-,N/A,,Clear,290,2012-10-15 11:51:00
7:51 AM,50.0,43.0,77,29.99,10.0,West,6.9,-,N/A,,Partly Cloudy,280,2012-10-15 12:51:00
8:51 AM,54.0,44.1,69,30.01,10.0,WNW,8.1,-,N/A,,Partly Cloudy,290,2012-10-15 13:51:00
9:51 AM,59.0,46.0,62,30.02,10.0,West,4.6,-,N/A,,Partly Cloudy,280,2012-10-15 14:51:00
10:51 AM,62.1,45.0,53,30.02,10.0,West,4.6,-,N/A,,Partly Cloudy,260,2012-10-15 15:51:00
11:51 AM,64.9,43.0,45,30.02,10.0,West,8.1,-,N/A,,Partly Cloudy,280,2012-10-15 16:51:00
12:51 PM,66.9,42.1,40,30.01,10.0,WNW,5.8,-,N/A,,Scattered Clouds,290,2012-10-15 17:51:00
1:51 PM,69.1,43.0,39,29.99,10.0,West,8.1,-,N/A,,Scattered Clouds,260,2012-10-15 18:51:00
2:51 PM,70.0,43.0,38,29.97,10.0,NW,4.6,-,N/A,,Partly Cloudy,310,2012-10-15 19:51:00
3:51 PM,71.1,43.0,36,29.96,10.0,WNW,4.6,-,N/A,,Partly Cloudy,290,2012-10-15 20:51:00
4:51 PM,71.1,42.1,35,29.96,10.0,Calm,Calm,-,N/A,,Partly Cloudy,0,2012-10-15 21:51:00
5:51 PM,69.1,42.1,38,29.95,10.0,Calm,Calm,-,N/A,,Partly Cloudy,0,2012-10-15 22:51:00
6:51 PM,64.0,44.1,48,29.94,10.0,Calm,Calm,-,N/A,,Scattered Clouds,0,2012-10-15 23:51:00
7:51 PM,60.1,46.0,60,29.96,10.0,Calm,Calm,-,N/A,,Partly Cloudy,0,2012-10-16 00:51:00
8:51 PM,57.9,46.9,67,29.96,10.0,Calm,Calm,-,N/A,,Partly Cloudy,0,2012-10-16 01:51:00
9:51 PM,55.9,46.9,72,29.96,10.0,Calm,Calm,-,N/A,,Partly Cloudy,0,2012-10-16 02:51:00
10:51 PM,55.9,45.0,67,29.94,10.0,East,4.6,-,N/A,,Partly Cloudy,90,2012-10-16 03:51:00
11:51 PM,55.0,44.1,67,29.94,10.0,SE,3.5,-,N/A,,Clear,130,2012-10-16 04:51:00